| time (UTC) | temp C | wind direction | speed KPH | gust KPH | rain 1hr cm | rain 24hr cm | rain mn cm | humidity % | barometer mb |
| 20260507140003 | 11 | 243 | 0.0 | 1.6 | 0.00 | 0.00 | 0.00 | 67 | 1018.7 |
| 20260507134610 | 10 | 215 | 0.0 | 0.0 | 0.00 | 0.00 | 0.00 | 69 | 1018.7 |
| 20260507133059 | 10 | 217 | 0.0 | 4.8 | 0.00 | 0.00 | 0.00 | 74 | 1018.6 |
| 20260507131602 | 8 | 231 | 0.0 | 0.0 | 0.00 | 0.00 | 0.00 | 81 | 1018.5 |
| 20260507130047 | 7 | 225 | 0.0 | 0.0 | 0.00 | 0.00 | 0.00 | 87 | 1018.7 |
| 20260507124544 | 7 | 225 | 0.0 | 0.0 | 0.00 | 0.00 | 0.00 | 90 | 1018.5 |
| 20260507123055 | 6 | 225 | 0.0 | 0.0 | 0.00 | 0.00 | 0.00 | 91 | 1018.4 |
| 20260507121544 | 5 | 225 | 0.0 | 1.6 | 0.00 | 0.00 | 0.00 | 91 | 1018.4 |
| 20260507120040 | 5 | 10 | 0.0 | 0.0 | 0.00 | 0.00 | 0.00 | 91 | 1018.2 |
| 20260507114539 | 5 | 10 | 0.0 | 0.0 | 0.00 | 0.00 | 0.00 | 91 | 1018.2 |
| 20260507113039 | 5 | 10 | 0.0 | 0.0 | 0.00 | 0.00 | 0.00 | 91 | 1018.0 |
| 20260507111539 | 5 | 10 | 0.0 | 0.0 | 0.00 | 0.00 | 0.00 | 91 | 1018.0 |
| 20260507110038 | 5 | 10 | 0.0 | 0.0 | 0.00 | 0.00 | 0.00 | 91 | 1017.8 |
| 20260507104538 | 5 | 10 | 0.0 | 0.0 | 0.00 | 0.00 | 0.00 | 90 | 1017.6 |
| 20260507103034 | 5 | 10 | 0.0 | 0.0 | 0.00 | 0.00 | 0.00 | 90 | 1017.6 |
| 20260507101534 | 5 | 10 | 0.0 | 0.0 | 0.00 | 0.00 | 0.00 | 89 | 1017.6 |
| 20260507100042 | 5 | 10 | 0.0 | 0.0 | 0.00 | 0.00 | 0.00 | 89 | 1017.6 |
| 20260507094533 | 5 | 10 | 0.0 | 0.0 | 0.00 | 0.00 | 0.00 | 89 | 1017.5 |
| 20260507093031 | 5 | 10 | 0.0 | 0.0 | 0.00 | 0.00 | 0.00 | 89 | 1017.5 |
| 20260507091535 | 5 | 10 | 0.0 | 0.0 | 0.00 | 0.00 | 0.00 | 89 | 1017.6 |
| 20260507090029 | 5 | 10 | 0.0 | 0.0 | 0.00 | 0.00 | 0.00 | 89 | 1017.6 |
| 20260507084528 | 5 | 10 | 0.0 | 0.0 | 0.00 | 0.00 | 0.00 | 88 | 1017.8 |
| 20260507083026 | 5 | 10 | 0.0 | 0.0 | 0.00 | 0.00 | 0.00 | 87 | 1017.8 |
| 20260507081524 | 5 | 10 | 0.0 | 0.0 | 0.00 | 0.00 | 0.00 | 86 | 1018.0 |
| 20260507080022 | 5 | 10 | 0.0 | 0.0 | 0.00 | 0.00 | 0.00 | 85 | 1018.1 |
| 20260507074520 | 6 | 10 | 0.0 | 0.0 | 0.00 | 0.03 | 0.00 | 85 | 1017.9 |
| 20260507073018 | 6 | 10 | 0.0 | 0.0 | 0.00 | 0.03 | 0.00 | 84 | 1017.9 |
| 20260507071523 | 6 | 10 | 0.0 | 0.0 | 0.00 | 0.03 | 0.00 | 83 | 1017.9 |
| 20260507070014 | 6 | 10 | 0.0 | 0.0 | 0.00 | 0.03 | 0.00 | 83 | 1017.9 |
| 20260507064511 | 6 | 10 | 0.0 | 0.0 | 0.00 | 0.13 | 0.00 | 82 | 1018.1 |
| 20260507063009 | 6 | 10 | 0.0 | 0.0 | 0.00 | 0.13 | 0.00 | 80 | 1017.9 |
| 20260507061508 | 6 | 10 | 0.0 | 0.0 | 0.00 | 0.13 | 0.00 | 79 | 1018.1 |
| 20260507060005 | 7 | 10 | 0.0 | 0.0 | 0.00 | 0.13 | 0.00 | 78 | 1018.1 |
| 20260507054504 | 7 | 10 | 0.0 | 0.0 | 0.00 | 0.18 | 0.00 | 78 | 1018.0 |
| 20260507053110 | 7 | 10 | 0.0 | 0.0 | 0.00 | 0.18 | 0.00 | 76 | 1017.9 |
| 20260507051607 | 7 | 10 | 0.0 | 0.0 | 0.00 | 0.18 | 0.00 | 75 | 1018.0 |
| 20260507050054 | 8 | 10 | 0.0 | 0.0 | 0.00 | 0.18 | 0.00 | 74 | 1017.9 |
| 20260507044557 | 8 | 10 | 0.0 | 0.0 | 0.00 | 0.20 | 0.18 | 74 | 1017.8 |
| 20260507043055 | 8 | 10 | 0.0 | 0.0 | 0.00 | 0.20 | 0.18 | 72 | 1017.7 |
| 20260507041551 | 8 | 10 | 0.0 | 0.0 | 0.00 | 0.20 | 0.18 | 72 | 1017.7 |
| 20260507040048 | 8 | 10 | 0.0 | 0.0 | 0.00 | 0.20 | 0.18 | 70 | 1017.7 |
| 20260507034549 | 9 | 10 | 0.0 | 0.0 | 0.00 | 0.23 | 0.18 | 68 | 1017.8 |
| 20260507033047 | 10 | 10 | 0.0 | 0.0 | 0.00 | 0.23 | 0.18 | 66 | 1017.8 |
| 20260507031546 | 10 | 10 | 0.0 | 1.6 | 0.00 | 0.23 | 0.18 | 64 | 1017.7 |
| 20260507030046 | 10 | 10 | 0.0 | 0.0 | 0.00 | 0.23 | 0.18 | 63 | 1017.7 |
| 20260507024546 | 10 | 10 | 0.0 | 0.0 | 0.00 | 0.25 | 0.18 | 62 | 1017.7 |
| 20260507023044 | 11 | 10 | 0.0 | 0.0 | 0.00 | 0.25 | 0.18 | 62 | 1017.6 |
| 20260507021544 | 11 | 10 | 0.0 | 0.0 | 0.00 | 0.25 | 0.18 | 61 | 1017.4 |
| 20260507020057 | 11 | 10 | 0.0 | 0.0 | 0.00 | 0.25 | 0.18 | 60 | 1017.3 |
| 20260507014546 | 12 | 10 | 0.0 | 0.0 | 0.00 | 0.48 | 0.18 | 58 | 1016.9 |
| 20260507013042 | 12 | 15 | 0.0 | 0.0 | 0.00 | 0.48 | 0.18 | 54 | 1016.8 |
| 20260507011542 | 13 | 11 | 0.0 | 0.0 | 0.00 | 0.48 | 0.18 | 53 | 1016.5 |
| 20260507010056 | 13 | 36 | 0.0 | 1.6 | 0.00 | 0.48 | 0.18 | 52 | 1016.2 |
| 20260507004539 | 13 | 13 | 0.0 | 3.2 | 0.00 | 0.69 | 0.18 | 50 | 1016.1 |
| 20260507003039 | 14 | 17 | 0.0 | 9.7 | 0.00 | 0.69 | 0.18 | 47 | 1016.1 |
| 20260507001537 | 15 | 5 | 0.0 | 0.0 | 0.00 | 0.69 | 0.18 | 46 | 1016.1 |
| 20260507000037 | 15 | 355 | 0.0 | 1.6 | 0.00 | 0.69 | 0.18 | 45 | 1015.9 |
| 20260506234537 | 15 | 5 | 0.0 | 6.4 | 0.00 | 0.99 | 0.18 | 45 | 1015.8 |
| 20260506233035 | 15 | 355 | 0.0 | 9.7 | 0.00 | 0.99 | 0.18 | 44 | 1015.8 |
| 20260506231544 | 15 | 276 | 0.0 | 4.8 | 0.00 | 0.99 | 0.18 | 44 | 1015.8 |
| 20260506230045 | 15 | 25 | 0.0 | 8.0 | 0.00 | 0.99 | 0.18 | 45 | 1015.9 |
| 20260506224539 | 15 | 5 | 0.0 | 0.0 | 0.00 | 1.07 | 0.18 | 45 | 1016.0 |
| 20260506223035 | 15 | 5 | 0.0 | 6.4 | 0.00 | 1.07 | 0.18 | 45 | 1016.0 |
| 20260506221536 | 15 | 265 | 0.0 | 0.0 | 0.00 | 1.07 | 0.18 | 46 | 1016.0 |
| 20260506220038 | 15 | 40 | 0.0 | 6.4 | 0.00 | 1.07 | 0.18 | 45 | 1016.1 |
| 20260506214537 | 16 | 341 | 0.0 | 17.7 | 0.00 | 1.09 | 0.18 | 44 | 1016.2 |
| 20260506213033 | 16 | 227 | 0.0 | 8.0 | 0.00 | 1.09 | 0.18 | 44 | 1016.3 |
| 20260506211534 | 16 | 38 | 0.0 | 14.5 | 0.00 | 1.09 | 0.18 | 46 | 1016.2 |
| 20260506210031 | 16 | 248 | 0.0 | 14.5 | 0.00 | 1.09 | 0.18 | 45 | 1016.4 |
| 20260506204533 | 15 | 10 | 0.0 | 1.6 | 0.00 | 1.09 | 0.18 | 46 | 1016.4 |
| 20260506203024 | 15 | 11 | 0.0 | 6.4 | 0.00 | 1.09 | 0.18 | 45 | 1016.8 |
| 20260506201530 | 15 | 360 | 0.0 | 8.0 | 0.00 | 1.09 | 0.18 | 46 | 1017.0 |
| 20260506200021 | 15 | 281 | 0.0 | 20.9 | 0.00 | 1.09 | 0.18 | 44 | 1017.0 |
| 20260506194519 | 15 | 17 | 0.0 | 9.7 | 0.00 | 1.09 | 0.18 | 43 | 1017.1 |
| 20260506193023 | 15 | 18 | 3.2 | 17.7 | 0.00 | 1.09 | 0.18 | 43 | 1017.0 |
| 20260506191513 | 15 | 277 | 0.0 | 9.7 | 0.00 | 1.09 | 0.18 | 46 | 1017.1 |
| 20260506190015 | 15 | 355 | 1.6 | 16.1 | 0.00 | 1.09 | 0.18 | 47 | 1016.9 |
| 20260506184518 | 15 | 347 | 0.0 | 14.5 | 0.00 | 1.09 | 0.18 | 49 | 1016.8 |
| 20260506183006 | 15 | 360 | 0.0 | 20.9 | 0.00 | 1.09 | 0.18 | 48 | 1016.9 |
| 20260506181503 | 15 | 280 | 0.0 | 6.4 | 0.00 | 1.09 | 0.18 | 50 | 1017.1 |
| 20260506180001 | 15 | 17 | 1.6 | 12.9 | 0.00 | 1.09 | 0.18 | 51 | 1017.3 |
| 20260506174559 | 14 | 323 | 1.6 | 16.1 | 0.00 | 1.09 | 0.18 | 48 | 1017.3 |
| 20260506173053 | 13 | 247 | 0.0 | 14.5 | 0.00 | 1.09 | 0.18 | 64 | 1017.2 |
| 20260506171559 | 13 | 345 | 1.6 | 9.7 | 0.00 | 1.09 | 0.18 | 69 | 1017.3 |
| 20260506170050 | 12 | 28 | 0.0 | 11.3 | 0.00 | 1.09 | 0.18 | 76 | 1017.3 |
| 20260506164545 | 11 | 223 | 3.2 | 12.9 | 0.00 | 1.12 | 0.18 | 76 | 1017.3 |
| 20260506163040 | 11 | 275 | 3.2 | 12.9 | 0.00 | 1.12 | 0.18 | 80 | 1017.2 |
| 20260506161539 | 11 | 313 | 3.2 | 6.4 | 0.00 | 1.12 | 0.18 | 82 | 1017.1 |
| 20260506160035 | 10 | 298 | 4.8 | 11.3 | 0.00 | 1.12 | 0.18 | 86 | 1016.9 |
| 20260506154529 | 10 | 274 | 0.0 | 11.3 | 0.00 | 1.12 | 0.18 | 87 | 1016.6 |
| 20260506153026 | 10 | 261 | 0.0 | 3.2 | 0.00 | 1.12 | 0.18 | 91 | 1016.5 |
| 20260506151525 | 9 | 261 | 0.0 | 8.0 | 0.00 | 1.12 | 0.18 | 92 | 1016.4 |
| 20260506150022 | 9 | 296 | 1.6 | 11.3 | 0.00 | 1.12 | 0.18 | 93 | 1016.4 |
| 20260506144522 | 9 | 268 | 1.6 | 8.0 | 0.00 | 1.12 | 0.18 | 93 | 1016.3 |
| 20260506143020 | 8 | 355 | 0.0 | 11.3 | 0.00 | 1.12 | 0.18 | 94 | 1016.2 |
| 20260506141518 | 8 | 341 | 1.6 | 11.3 | 0.00 | 1.12 | 0.18 | 94 | 1016.2 |